Tracking 31027 objects as of 19-Jul-2025
HD Live streaming from Space Station
objects crossing your sky now

STARLINK-30608

Track STARLINK-30608 now!
10-day predictions
STARLINK-30608 is classified as:


NORAD ID: 58091
Int'l Code: 2023-160S
Perigee: 565.0 km
Apogee: 567.4 km
Inclination: 43.0 °
Period: 95.8 minutes
Semi major axis: 6937 km
RCS: Unknown
Launch date: October 18, 2023
Source: United States (US)
Launch site: AIR FORCE EASTERN TEST RANGE (AFETR)
Your satellite tracking list
ATLAS 2A CENTAUR R/B
Track 1 satellite(s)




NASA's NSSDC Master Catalog

Two Line Element Set (TLE):
1 58091U 23160S   25199.50659005 -.00000040  00000-0  12154-4 0  9993
2 58091  43.0032 272.4898 0001701 273.0524  87.0124 15.02536470 97662
Source of the keplerian elements: AFSPC